Location: Unspecified
(0.0000°N, 0.0000°E)
Time: 02:18:55
(UTC+02:00)

Cosmos 2237 Rocket - Visible Passes

Search period start: 26 October 2014 00:00
Search period end: 04 November 2014 23:00
Orbit: 836 x 849 km, 71.0° (Epoch: 25 October)

Date Brightness Start Highest point End Pass type
(mag) Time Alt. Az. Time Alt. Az. Time Alt. Az.
26 Oct 5.1 04:51:25 10° ENE 04:53:02 11° ENE 04:54:38 10° E visible
26 Oct 5.2 19:19:14 10° W 19:21:25 12° WNW 19:23:36 10° NW visible
27 Oct 5.2 04:37:30 10° ENE 04:38:17 10° ENE 04:39:04 10° E visible
27 Oct 2.4 06:16:41 10° NNW 06:22:04 49° WSW 06:27:28 10° S visible
27 Oct 5.1 19:04:06 10° WSW 19:06:40 13° WNW 19:09:15 10° NW visible
28 Oct 2.3 06:01:54 10° NNW 06:07:19 53° WSW 06:12:46 10° S visible
29 Oct 2.3 05:47:07 10° NNW 05:52:34 57° WSW 05:58:04 10° S visible
30 Oct 2.2 05:33:04 14° NNW 05:37:50 61° WSW 05:43:22 10° S visible
31 Oct 2.1 05:20:06 28° NNW 05:23:05 65° WSW 05:28:39 10° S visible
01 Nov 2.0 05:06:59 50° NW 05:08:21 69° WSW 05:13:55 10° S visible
02 Nov 2.0 04:53:43 74° WSW 04:53:43 74° WSW 04:59:12 10° S visible
03 Nov 2.7 04:40:19 51° S 04:40:19 51° S 04:44:28 10° SSE visible
04 Nov 3.5 04:26:48 32° S 04:26:48 32° S 04:29:44 10° SSE visible
